[[{"header":{"parameterUnit":"m.s-1","parameterCategory":2,"la1":30.2991,"la2":30.254,"lo1":-89.0895,"lo2":-89.0444,"dy":0.0017,"dx":0.0017,"nx":28,"ny":28,"refTime":"2024-06-13T21:00:00:Z","depth":"0","parameterNumber":2,"parameterNumberName":"U-component_of_CURRENTS"},"data":[0,0,0,0,0,0,0,0,0,0,0,0,0,0,0,0,0,0,0,0,0,0,0,0,0,0,0,0,0,0,0,0,0,0,0,0,0,0,0,0,0,0,0,0,0,0,0,0,0,0,0,0,0,0,0,0,0,0,0.1843,0.1844,0,0.1881,0.1882,0.1882,0.1891,0.189,0.189,0.189,0.1906,0.1907,0.1907,0,0,0,0,0,0,0,0,0,0,0,0,0,0.1747,0.1749,0.1843,0.1844,0.1844,0.1881,0.1882,0.1882,0.1891,0.189,0.189,0.189,0.1906,0.1907,0.1907,0,0,0,0,0,0,0,0,0,0,0,0,0,0.1787,0.175,0.1843,0.1853,0.1855,0.1881,0.1882,0.1882,0.1891,0.189,0.189,0.189,0.1906,0.1907,0.1908,0.1921,0,0,0.1911,0.1911,0,0,0,0,0,0,0,0,0.1785,0.1791,0.1851,0.1853,0.1854,0.1881,0.1854,0.1894,0.1891,0.1876,0.189,0.1889,0.1896,0.1898,0.1906,0.1921,0.1922,0.1911,0.1911,0.1912,0.1912,0,0,0,0,0,0,0,0.1782,0.1789,0.1858,0.1852,0.1854,0.1845,0.1851,0.1862,0.1887,0.1878,0.1878,0.1884,0.1897,0.1905,0.1906,0.1922,0.1911,0.1911,0.1912,0.1912,0.1972,0.1973,0,0,0,0,0,0,0.1781,0.1787,0.1857,0.1859,0.1818,0.1848,0.1854,0.1873,0.1888,0.189,0.1884,0.1884,0.1903,0.1905,0.1907,0.1937,0.1912,0.1913,0.1913,0.1971,0.1972,0.1973,0,0,0,0,0,0,0.1779,0.1787,0.1855,0.1823,0.1831,0.185,0.1871,0.1874,0.1883,0.1893,0.1894,0.1891,0.1903,0.1905,0.1925,0.1937,0.1913,0.1914,0.197,0.1971,0.1972,0.1989,0,0,0,0,0,0,0.1776,0.1787,0.1796,0.1824,0.1833,0.1871,0.1871,0.1875,0.1887,0.1888,0.1899,0.19,0.1903,0.1923,0.1926,0.1938,0.1915,0.1968,0.197,0.1972,0.1987,0.1991,0.1994,0,0,0,0,0,0.1773,0.1785,0.1797,0.1805,0.1847,0.1871,0.1875,0.1886,0.1888,0.1894,0.1907,0.19,0.1937,0.1925,0.1927,0.194,0.1967,0.197,0.1972,0.1986,0.199,0.1994,0,0,0,0,0,0,0.1736,0.1788,0.1801,0.1826,0.1848,0.1873,0.1877,0.1889,0.1905,0.1904,0.1912,0.1915,0.1941,0.1939,0.1926,0.1965,0.1951,0.1954,0.1961,0.1965,0.1969,0.195,0.1915,0,0,0,0,0,0.1737,0.1766,0.1804,0.182,0.1834,0.1857,0.1867,0.1879,0.1897,0.1904,0.1912,0.1927,0.1953,0.1956,0.1975,0.199,0.1997,0.2001,0.2005,0.2007,0.1995,0.2021,0.2026,0.198,0.198,0.198,0,0,0.1723,0.1757,0.177,0.1815,0.1832,0.1847,0.1862,0.1879,0.189,0.1903,0.1915,0.1942,0.1962,0.1987,0.1997,0.1984,0.203,0.201,0.2012,0.1998,0.2024,0.2028,0.2032,0.1982,0.1981,0.1981,0,0,0.1706,0.1745,0.176,0.1784,0.1818,0.1837,0.1844,0.1874,0.1887,0.191,0.193,0.196,0.1983,0.2004,0.2018,0.2049,0.2054,0.206,0.2053,0.2079,0.2083,0.2086,0.2123,0.2129,0.2053,0.2053,0.2053,0,0.1681,0.1715,0.1763,0.178,0.1793,0.1833,0.1839,0.1864,0.1894,0.1903,0.1912,0.1966,0.199,0.2024,0.2044,0.2055,0.2074,0.2035,0.2082,0.2085,0.2088,0.2126,0.2132,0.2054,0.2054,0.2054,0.2054,0,0.1677,0.1702,0.171,0.1752,0.1773,0.1786,0.1828,0.1847,0.1869,0.1891,0.1931,0.1972,0.1999,0.2024,0.2046,0.2084,0.2094,0.209,0.2068,0.2094,0.2132,0.2139,0.2056,0.2056,0.2055,0.2055,0,0,0.1618,0.1692,0.1692,0.1707,0.1759,0.1774,0.18,0.1831,0.1841,0.1884,0.1898,0.1966,0.199,0.2009,0.2046,0.2074,0.2133,0.2092,0.2093,0.2122,0.2204,0.2244,0.2255,0.2139,0.2139,0.214,0.223,0,0.159,0.1622,0.1664,0.1676,0.1695,0.174,0.1758,0.1794,0.1828,0.1854,0.191,0.1946,0.1985,0.201,0.2046,0.2114,0.2148,0.2109,0.2179,0.2182,0.2208,0.2262,0.2286,0.2371,0.2236,0.2238,0.2238,0,0.1562,0.1595,0.161,0.1653,0.1661,0.1671,0.1705,0.1729,0.1783,0.1811,0.1856,0.1904,0.1974,0.1995,0.2107,0.2083,0.2142,0.2189,0.2193,0.2222,0.2233,0.232,0.2388,0.232,0.2248,0.2248,0.2247,0,0.1505,0.1546,0.1559,0.1575,0.1632,0.1636,0.1661,0.171,0.173,0.1789,0.181,0.1888,0.1939,0.2016,0.2133,0.2123,0.2249,0.2242,0.2329,0.2333,0.2361,0.2366,0.2362,0.2305,0.2304,0.2304,0.2304,0,0.1467,0.1468,0.1533,0.1543,0.1544,0.1597,0.1603,0.1636,0.1686,0.1714,0.1788,0.1836,0.1947,0.2038,0.2127,0.2264,0.2248,0.234,0.2361,0.2372,0.2376,0.2323,0.2259,0.2307,0.2307,0.2306,0.2305,0,0.1405,0.1446,0.1458,0.1511,0.1521,0.1524,0.1569,0.1583,0.1633,0.1674,0.1697,0.1808,0.1949,0.2061,0.2203,0.2266,0.2331,0.2424,0.2439,0.2461,0.2474,0.2411,0.2299,0.2242,0.2538,0.2539,0.2541,0,0.1377,0.1385,0.1428,0.1437,0.1459,0.1478,0.1496,0.1548,0.1575,0.167,0.1693,0.1831,0.1957,0.2182,0.2331,0.2496,0.2389,0.2578,0.2558,0.2488,0.2432,0.2267,0.2213,0.2614,0.2616,0.2617,0.2618,0,0.1331,0.1346,0.1372,0.1395,0.1408,0.1425,0.146,0.1472,0.1546,0.1601,0.1716,0.1826,0.2068,0.227,0.2469,0.2575,0.246,0.2613,0.2534,0.2488,0.2312,0.2264,0.254,0.2631,0.263,0.2629,0.2628,0.2628,0.1292,0.1298,0.1342,0.1358,0.1369,0.1386,0.1401,0.1457,0.151,0.1612,0.1721,0.1895,0.217,0.2487,0.2562,0.2689,0.2563,0.2676,0.2608,0.2449,0.2368,0.2678,0.2791,0.2791,0.2791,0.279,0.279,0,0.1251,0.1284,0.1307,0.1331,0.134,0.1358,0.139,0.1418,0.1491,0.1617,0.1746,0.2043,0.2291,0.2498,0.2728,0.2691,0.257,0.2618,0.2391,0.2344,0.265,0.2632,0.2722,0.2722,0.2722,0.2722,0.2722,0.2722,0.1233,0.1262,0.129,0.1308,0.1323,0.1332,0.1351,0.14,0.1481,0.1648,0.1805,0.1949,0.2217,0.2489,0.2593,0.2587,0.2367,0.2296,0.2187,0.2424,0.2423,0.2421,0.239,0.2428,0.2427,0.1853,0.1848,0.1845]},{"header":{"parameterUnit":"m.s-1","parameterCategory":2,"la1":30.2991,"la2":30.254,"lo1":-89.0895,"lo2":-89.0444,"dy":0.0017,"dx":0.0017,"nx":28,"ny":28,"refTime":"2024-06-13T21:00:00:Z","depth":"0","parameterNumber":3,"parameterNumberName":"V-component_of_CURRENTS"},"data":[0,0,0,0,0,0,0,0,0,0,0,0,0,0,0,0,0,0,0,0,0,0,0,0,0,0,0,0,0,0,0,0,0,0,0,0,0,0,0,0,0,0,0,0,0,0,0,0,0,0,0,0,0,0,0,0,0,0,0.0428,0.0427,0,0.0383,0.0383,0.0382,0.0359,0.0359,0.0359,0.0359,0.0236,0.0233,0.023,0,0,0,0,0,0,0,0,0,0,0,0,0,0.0466,0.0466,0.0428,0.0427,0.0427,0.0383,0.0383,0.0382,0.0359,0.0359,0.0359,0.0359,0.0237,0.0234,0.023,0,0,0,0,0,0,0,0,0,0,0,0,0,0.0439,0.0466,0.0428,0.0409,0.0407,0.0383,0.0383,0.0382,0.0359,0.0359,0.0359,0.0359,0.0239,0.0234,0.0229,0.0203,0,0,0.0215,0.0213,0,0,0,0,0,0,0,0,0.0441,0.0438,0.0413,0.041,0.0408,0.0376,0.0351,0.0318,0.0359,0.0378,0.0359,0.0359,0.0275,0.0268,0.0262,0.0198,0.0192,0.0214,0.0212,0.0209,0.0208,0,0,0,0,0,0,0,0.0443,0.044,0.0411,0.0412,0.0409,0.0394,0.039,0.0345,0.0327,0.0377,0.0375,0.0368,0.0274,0.0267,0.0259,0.0191,0.0215,0.021,0.0207,0.0206,0.008,0.008,0,0,0,0,0,0,0.0448,0.0442,0.0412,0.041,0.0423,0.0393,0.0389,0.0387,0.0329,0.0321,0.0369,0.0367,0.0275,0.0264,0.0254,0.0218,0.021,0.0205,0.0202,0.0081,0.008,0.008,0,0,0,0,0,0,0.0449,0.0446,0.0414,0.0424,0.0418,0.0393,0.039,0.0386,0.0379,0.0324,0.0314,0.0365,0.0274,0.0261,0.0219,0.0213,0.0203,0.0199,0.0081,0.0081,0.008,0.0147,0,0,0,0,0,0,0.0451,0.0447,0.0449,0.0424,0.0418,0.0401,0.039,0.0385,0.0375,0.0373,0.0318,0.0307,0.0273,0.0227,0.0215,0.0207,0.0195,0.0082,0.0081,0.008,0.0146,0.0149,0.0152,0,0,0,0,0,0.0452,0.0454,0.045,0.0446,0.0422,0.0401,0.0396,0.0378,0.0375,0.0371,0.0339,0.0308,0.0212,0.0223,0.0209,0.0199,0.0082,0.0081,0.008,0.0144,0.0148,0.0152,0,0,0,0,0,0,0.0467,0.0451,0.0446,0.0442,0.0424,0.0397,0.0392,0.0381,0.0354,0.0351,0.0305,0.0291,0.0253,0.0214,0.0227,0.0158,0.014,0.0136,0.0194,0.0197,0.02,0.0217,0.0191,0,0,0,0,0,0.0474,0.0473,0.0451,0.0447,0.0441,0.0419,0.0409,0.0395,0.0368,0.0357,0.032,0.0276,0.0237,0.0209,0.0169,0.013,0.0109,0.0112,0.0115,0.0118,0.0121,0.009,0.0091,0.0076,0.0076,0.0076,0,0,0.0476,0.0468,0.0466,0.045,0.0437,0.0426,0.0413,0.0398,0.0388,0.0345,0.032,0.0287,0.0231,0.0195,0.0172,0.016,0.0113,0.0117,0.012,0.0121,0.0089,0.0091,0.0092,0.0075,0.0075,0.0076,0,0,0.0476,0.0476,0.0473,0.0462,0.0444,0.0432,0.043,0.0404,0.0394,0.0367,0.0336,0.0305,0.0239,0.0206,0.0178,0.0169,0.0135,0.0148,0.0172,0.0142,0.0144,0.0145,0.0138,0.0138,0.0145,0.0145,0.0145,0,0.048,0.0475,0.0468,0.046,0.0454,0.0437,0.043,0.0416,0.038,0.0373,0.0363,0.029,0.0246,0.0206,0.0206,0.0177,0.0163,0.0168,0.0149,0.0149,0.0149,0.0142,0.0141,0.0148,0.0148,0.0147,0.0147,0,0.0473,0.0472,0.047,0.046,0.0452,0.0444,0.0427,0.0418,0.0408,0.0393,0.0362,0.0315,0.0272,0.0252,0.0226,0.0199,0.0192,0.0165,0.0148,0.0155,0.0147,0.0144,0.0153,0.0151,0.0151,0.015,0,0,0.0481,0.0469,0.0469,0.0469,0.0455,0.0447,0.0438,0.0426,0.0427,0.0396,0.0393,0.0334,0.0321,0.0289,0.0253,0.0227,0.0221,0.0201,0.0197,0.021,0.0175,0.0169,0.0165,0.0194,0.0193,0.0193,0.0176,0,0.0481,0.0472,0.0467,0.0463,0.0461,0.0452,0.0448,0.0435,0.0428,0.0421,0.0384,0.0363,0.0331,0.0317,0.0288,0.0239,0.0215,0.0229,0.0151,0.0149,0.0155,0.0162,0.0178,0.0163,0.0174,0.0173,0.0173,0,0.0476,0.0477,0.0471,0.0474,0.0473,0.0469,0.0473,0.0466,0.0455,0.0449,0.043,0.0407,0.0374,0.0343,0.0274,0.0287,0.0236,0.0198,0.0196,0.0164,0.0138,0.0151,0.0158,0.0046,0.0169,0.017,0.017,0,0.0486,0.0481,0.0481,0.0479,0.0477,0.0478,0.0479,0.0473,0.0474,0.0471,0.0477,0.0437,0.0421,0.0357,0.0292,0.028,0.0223,0.0189,0.0137,0.0136,0.012,0.0119,0.0021,0.0131,0.0131,0.0132,0.0132,0,0.0491,0.0492,0.0486,0.0489,0.0496,0.0491,0.0499,0.0499,0.05,0.0511,0.0493,0.0503,0.0422,0.0386,0.0314,0.0235,0.0237,0.0147,0.0128,0.0145,0.0146,0.0022,-0.0051,0.0131,0.0131,0.0131,0.0131,0,0.0491,0.049,0.0489,0.0493,0.0497,0.0499,0.0507,0.0516,0.0524,0.054,0.0543,0.0544,0.0517,0.0441,0.0348,0.0265,0.0127,0.0151,0.0192,0.0177,0.0012,-0.0057,-0.0161,-0.0203,0.0087,0.0086,0.0086,0,0.0491,0.0487,0.0487,0.0494,0.0495,0.0502,0.0513,0.0521,0.0537,0.0573,0.0588,0.0583,0.0603,0.0489,0.0354,0.0238,0.0129,0.0143,0.0106,0.0009,-0.0083,-0.0114,-0.0144,0.0119,0.0119,0.0119,0.0119,0,0.0491,0.0481,0.048,0.0493,0.0505,0.0514,0.0534,0.0554,0.0579,0.0623,0.0691,0.0721,0.0633,0.0558,0.0389,0.0283,0.0068,0.0138,0.0017,-0.0082,-0.0103,-0.0154,0.0138,0.0119,0.0119,0.0119,0.0119,0.0119,0.0489,0.048,0.0482,0.0494,0.0505,0.0536,0.0567,0.0611,0.0669,0.0772,0.0788,0.0894,0.0739,0.0536,0.0355,0.0056,0.0055,-0.0036,-0.0112,-0.0133,-0.018,0.0124,0.009,0.009,0.0089,0.0089,0.0089,0,0.0503,0.0494,0.0494,0.0513,0.053,0.054,0.0592,0.0651,0.0757,0.088,0.0979,0.1015,0.0793,0.0538,0.0144,-0.0125,-0.0221,-0.0272,-0.0324,-0.0345,-0.0091,-0.0097,-0.0149,-0.0149,-0.0149,-0.0148,-0.0148,-0.0148,0.0517,0.0517,0.0514,0.0545,0.0559,0.0612,0.0656,0.0762,0.0871,0.1078,0.1207,0.128,0.1099,0.0342,-0.0208,-0.0363,-0.0541,-0.0583,-0.0673,-0.0521,-0.0505,-0.049,-0.0512,-0.0651,-0.0651,-0.087,-0.0872,-0.0874]}],[{"header":{"parameterUnit":"m.s-1","parameterCategory":2,"la1":30.2991,"la2":30.254,"lo1":-89.0895,"lo2":-89.0444,"dy":0.0017,"dx":0.0017,"nx":28,"ny":28,"refTime":"2024-06-13T21:00:00:Z","depth":"2","parameterNumber":2,"parameterNumberName":"U-component_of_CURRENTS"},"data":[0,0,0,0,0,0,0,0,0,0,0,0,0,0,0,0,0,0,0,0,0,0,0,0,0,0,0,0,0,0,0,0,0,0,0,0,0,0,0,0,0,0,0,0,0,0,0,0,0,0,0,0,0,0,0,0,0,0,0.0673,0.0674,0,0.0733,0.0734,0.0734,0.0859,0.0862,0.0865,0.0867,0.0955,0.0955,0.0955,0,0,0,0,0,0,0,0,0,0,0,0,0,0.0728,0.0726,0.0673,0.0674,0.0675,0.0733,0.0734,0.0734,0.0859,0.0862,0.0865,0.0868,0.0955,0.0955,0.0955,0,0,0,0,0,0,0,0,0,0,0,0,0,0.0736,0.0725,0.0673,0.0745,0.0752,0.0733,0.0734,0.0735,0.0858,0.0862,0.0866,0.087,0.0955,0.0955,0.0955,0.0876,0,0,0.0954,0.0954,0,0,0,0,0,0,0,0,0.0736,0.0734,0.0733,0.074,0.0748,0.0794,0.0786,0.0784,0.0857,0.0817,0.0867,0.0872,0.0901,0.0906,0.0907,0.088,0.0884,0.0954,0.0954,0.0954,0.0954,0,0,0,0,0,0,0,0.0735,0.0733,0.0696,0.0734,0.0743,0.0795,0.08,0.0786,0.0836,0.0821,0.083,0.0837,0.0906,0.0906,0.091,0.0885,0.0954,0.0954,0.0954,0.0954,0.0919,0.0918,0,0,0,0,0,0,0.0721,0.0731,0.0694,0.0698,0.0752,0.0791,0.0796,0.0774,0.0836,0.0849,0.0834,0.0843,0.0905,0.091,0.0913,0.093,0.0954,0.0954,0.0954,0.092,0.0919,0.0918,0,0,0,0,0,0,0.0721,0.0716,0.0692,0.0719,0.072,0.0785,0.076,0.0773,0.082,0.0846,0.0861,0.0872,0.0908,0.0914,0.0922,0.0931,0.0954,0.0954,0.0921,0.092,0.0919,0.0895,0,0,0,0,0,0,0.0722,0.0715,0.0706,0.0716,0.0718,0.0696,0.0757,0.0772,0.0816,0.0829,0.0882,0.0892,0.0912,0.0922,0.0922,0.0931,0.0954,0.0922,0.0921,0.0919,0.0896,0.0893,0.0889,0,0,0,0,0,0.0723,0.0702,0.0705,0.0702,0.0699,0.0695,0.07,0.0761,0.0814,0.0821,0.0857,0.0893,0.0913,0.092,0.092,0.093,0.0923,0.0921,0.0919,0.0898,0.0893,0.0889,0,0,0,0,0,0,0.073,0.0713,0.0717,0.0693,0.0697,0.0718,0.0737,0.077,0.0802,0.083,0.0867,0.0876,0.0891,0.09,0.0907,0.0914,0.0929,0.0927,0.0912,0.0908,0.0905,0.0907,0.0954,0,0,0,0,0,0.0717,0.0701,0.0689,0.0676,0.0676,0.0707,0.0721,0.0753,0.0777,0.08,0.0841,0.087,0.087,0.0885,0.0889,0.0878,0.0891,0.0888,0.0884,0.0881,0.0882,0.0898,0.0896,0.0912,0.0912,0.0912,0,0,0.0718,0.0708,0.0701,0.0678,0.0692,0.0684,0.0727,0.0748,0.0758,0.0797,0.0842,0.0857,0.0862,0.0862,0.087,0.0881,0.088,0.0879,0.0877,0.0879,0.0896,0.0895,0.0894,0.0911,0.0911,0.0911,0,0,0.0716,0.0699,0.0686,0.0685,0.0695,0.0693,0.0702,0.0729,0.0763,0.0776,0.081,0.0821,0.0847,0.0842,0.0841,0.081,0.0858,0.0833,0.0822,0.0837,0.0836,0.0836,0.084,0.084,0.0835,0.0835,0.0835,0,0.0729,0.0694,0.0686,0.068,0.0684,0.0697,0.0691,0.0701,0.0739,0.0753,0.0798,0.0824,0.083,0.0807,0.0806,0.0803,0.0828,0.084,0.0834,0.0834,0.0834,0.0838,0.0839,0.0834,0.0834,0.0834,0.0834,0,0.0707,0.0696,0.0694,0.0676,0.0673,0.0672,0.0669,0.0686,0.0729,0.0746,0.0767,0.0773,0.0799,0.0794,0.0794,0.0791,0.0813,0.0826,0.0849,0.0831,0.0836,0.0837,0.0832,0.0832,0.0833,0.0833,0,0,0.0708,0.0681,0.0689,0.0684,0.0673,0.0668,0.0664,0.0654,0.0675,0.071,0.074,0.0726,0.0763,0.0762,0.0768,0.0772,0.078,0.0809,0.0811,0.0819,0.0825,0.089,0.0897,0.0815,0.0815,0.0815,0.0825,0,0.0703,0.0682,0.0669,0.0663,0.0649,0.0652,0.0651,0.0652,0.0672,0.0702,0.0704,0.0736,0.074,0.0771,0.077,0.0789,0.0785,0.0776,0.0835,0.0836,0.0902,0.0901,0.0778,0.0782,0.0826,0.0826,0.0826,0,0.0694,0.0677,0.0663,0.0655,0.0653,0.0657,0.0659,0.0662,0.0675,0.0705,0.0727,0.075,0.0753,0.0772,0.0788,0.0798,0.0808,0.0812,0.0814,0.0887,0.0904,0.0808,0.0783,0.0828,0.0828,0.0828,0.0828,0,0.0696,0.0682,0.0669,0.0668,0.0652,0.0667,0.0671,0.0679,0.0686,0.0724,0.0752,0.0763,0.0802,0.081,0.0836,0.0828,0.0864,0.0849,0.0899,0.0903,0.0813,0.081,0.0847,0.0847,0.0847,0.0847,0.0847,0,0.0688,0.0687,0.0682,0.0677,0.0678,0.0689,0.0699,0.0712,0.0737,0.0748,0.0776,0.0801,0.0825,0.085,0.0849,0.09,0.0881,0.09,0.0916,0.0801,0.0797,0.0852,0.0852,0.0847,0.0847,0.0847,0.0847,0,0.0692,0.0685,0.0673,0.0672,0.0678,0.0694,0.0708,0.0714,0.0759,0.078,0.0802,0.0846,0.0916,0.0925,0.095,0.094,0.0959,0.0971,0.0839,0.0841,0.0972,0.0971,0.1017,0.1019,0.1021,0.1023,0.1025,0,0.0676,0.0673,0.0672,0.0676,0.0684,0.07,0.0705,0.0727,0.073,0.0804,0.0811,0.0904,0.0971,0.1046,0.1049,0.1073,0.1046,0.0946,0.09,0.0982,0.0992,0.0988,0.0984,0.0748,0.0747,0.0746,0.0746,0,0.0642,0.0662,0.0651,0.0661,0.0672,0.0657,0.0675,0.0678,0.0716,0.0767,0.0849,0.0928,0.1038,0.1047,0.1101,0.107,0.0939,0.0938,0.1046,0.0756,0.0739,0.0746,0.0748,0.0739,0.074,0.074,0.0741,0.0741,0.0616,0.0615,0.0618,0.0628,0.0639,0.0631,0.0632,0.0656,0.0687,0.078,0.0849,0.096,0.0949,0.1038,0.1021,0.0982,0.1023,0.0896,0.0892,0.0891,0.0891,0.0882,0.0907,0.0908,0.091,0.0911,0.0912,0,0.0575,0.0585,0.0582,0.0576,0.0578,0.0615,0.0613,0.0618,0.0677,0.0785,0.0895,0.0829,0.0888,0.0907,0.0863,0.0862,0.0795,0.0797,0.0668,0.0674,0.0679,0.0664,0.0622,0.0622,0.0622,0.0621,0,0,0.0544,0.0533,0.0532,0.051,0.0545,0.0553,0.0572,0.0601,0.0657,0.0721,0.0787,0.0921,0.0909,0.0785,0.0734,0.0695,0.0691,0.0665,0.0885,0.0741,0.0747,0.0709,0.069,0,0,0,0,0]},{"header":{"parameterUnit":"m.s-1","parameterCategory":2,"la1":30.2991,"la2":30.254,"lo1":-89.0895,"lo2":-89.0444,"dy":0.0017,"dx":0.0017,"nx":28,"ny":28,"refTime":"2024-06-13T21:00:00:Z","depth":"2","parameterNumber":3,"parameterNumberName":"V-component_of_CURRENTS"},"data":[0,0,0,0,0,0,0,0,0,0,0,0,0,0,0,0,0,0,0,0,0,0,0,0,0,0,0,0,0,0,0,0,0,0,0,0,0,0,0,0,0,0,0,0,0,0,0,0,0,0,0,0,0,0,0,0,0,0,-0.0317,-0.0317,0,-0.0336,-0.0336,-0.0337,-0.0314,-0.0313,-0.0312,-0.0311,-0.0379,-0.0382,-0.0385,0,0,0,0,0,0,0,0,0,0,0,0,0,-0.0278,-0.0279,-0.0317,-0.0317,-0.0317,-0.0336,-0.0336,-0.0337,-0.0314,-0.0313,-0.0311,-0.031,-0.0378,-0.0382,-0.0385,0,0,0,0,0,0,0,0,0,0,0,0,0,-0.0299,-0.0279,-0.0317,-0.0306,-0.0305,-0.0336,-0.0336,-0.0337,-0.0314,-0.0313,-0.0311,-0.0309,-0.0377,-0.0381,-0.0385,-0.0446,0,0,-0.0399,-0.0401,0,0,0,0,0,0,0,0,-0.0298,-0.0301,-0.0308,-0.0307,-0.0305,-0.0318,-0.0347,-0.0375,-0.0315,-0.0314,-0.0311,-0.0309,-0.0363,-0.0368,-0.0379,-0.0449,-0.0452,-0.0399,-0.0402,-0.0404,-0.0405,0,0,0,0,0,0,0,-0.0296,-0.03,-0.0328,-0.0308,-0.0306,-0.0305,-0.0306,-0.0353,-0.0351,-0.0314,-0.0312,-0.0309,-0.0363,-0.0375,-0.038,-0.0453,-0.0399,-0.0403,-0.0405,-0.0407,-0.0538,-0.0539,0,0,0,0,0,0,-0.0289,-0.0299,-0.0327,-0.0328,-0.0294,-0.0307,-0.0308,-0.0318,-0.0349,-0.0351,-0.0311,-0.0308,-0.0368,-0.0375,-0.0383,-0.0413,-0.0403,-0.0408,-0.041,-0.0537,-0.0538,-0.0539,0,0,0,0,0,0,-0.0288,-0.0292,-0.0326,-0.031,-0.0314,-0.0309,-0.032,-0.032,-0.0314,-0.0346,-0.0349,-0.0303,-0.0367,-0.0377,-0.041,-0.0416,-0.0409,-0.0413,-0.0536,-0.0537,-0.0539,-0.05,0,0,0,0,0,0,-0.0288,-0.0292,-0.03,-0.031,-0.0315,-0.0335,-0.0322,-0.0321,-0.0315,-0.0311,-0.0341,-0.0346,-0.0367,-0.0403,-0.0414,-0.0422,-0.0417,-0.0535,-0.0537,-0.0538,-0.05,-0.05,-0.05,0,0,0,0,0,-0.0286,-0.0306,-0.0301,-0.0304,-0.0325,-0.0335,-0.0337,-0.0329,-0.0316,-0.0318,-0.0334,-0.0344,-0.0421,-0.0407,-0.042,-0.043,-0.0534,-0.0536,-0.0538,-0.0501,-0.05,-0.05,0,0,0,0,0,0,-0.0289,-0.0305,-0.03,-0.0322,-0.032,-0.0329,-0.0334,-0.0325,-0.0341,-0.0334,-0.0359,-0.0367,-0.0394,-0.0426,-0.041,-0.0474,-0.0479,-0.0484,-0.0447,-0.0447,-0.0447,-0.0427,-0.042,0,0,0,0,0,-0.0294,-0.0314,-0.0318,-0.0331,-0.0332,-0.0331,-0.0333,-0.0324,-0.0336,-0.0338,-0.0354,-0.0383,-0.0419,-0.044,-0.0471,-0.0517,-0.0532,-0.0532,-0.0532,-0.0531,-0.0525,-0.0556,-0.0557,-0.0546,-0.0546,-0.0546,0,0,-0.0296,-0.0308,-0.0317,-0.0333,-0.0334,-0.0333,-0.0329,-0.0327,-0.0323,-0.0349,-0.0353,-0.0379,-0.0429,-0.0464,-0.0481,-0.0489,-0.0543,-0.0534,-0.0533,-0.0527,-0.0558,-0.0559,-0.0559,-0.0547,-0.0547,-0.0547,0,0,-0.0306,-0.0321,-0.0335,-0.0334,-0.0331,-0.0333,-0.0327,-0.0326,-0.0323,-0.0338,-0.0352,-0.0376,-0.0431,-0.046,-0.0487,-0.0512,-0.0533,-0.0529,-0.0521,-0.0551,-0.0551,-0.0552,-0.0567,-0.057,-0.0538,-0.0538,-0.0538,0,-0.0304,-0.0324,-0.0337,-0.0339,-0.0335,-0.0328,-0.0324,-0.0329,-0.0333,-0.0339,-0.0331,-0.0394,-0.0427,-0.0478,-0.0483,-0.0509,-0.0526,-0.0514,-0.0548,-0.0549,-0.055,-0.0566,-0.0569,-0.0536,-0.0536,-0.0536,-0.0537,0,-0.0317,-0.0324,-0.033,-0.0333,-0.0331,-0.033,-0.0327,-0.0322,-0.0315,-0.0321,-0.0348,-0.0387,-0.0424,-0.0444,-0.0472,-0.0508,-0.0517,-0.0533,-0.054,-0.0548,-0.0565,-0.0569,-0.0534,-0.0534,-0.0535,-0.0535,0,0,-0.0322,-0.034,-0.0338,-0.0332,-0.0326,-0.0325,-0.032,-0.0325,-0.0316,-0.0328,-0.0333,-0.039,-0.04,-0.0432,-0.0469,-0.0497,-0.0519,-0.052,-0.0522,-0.052,-0.0577,-0.0546,-0.0547,-0.0542,-0.0543,-0.0543,-0.0582,0,-0.0322,-0.0338,-0.0341,-0.033,-0.033,-0.0318,-0.0312,-0.031,-0.0312,-0.0314,-0.0355,-0.0375,-0.0403,-0.0417,-0.0451,-0.0498,-0.0529,-0.0507,-0.0583,-0.0584,-0.0543,-0.055,-0.0488,-0.0515,-0.0586,-0.0586,-0.0587,0,-0.0322,-0.0334,-0.0339,-0.0327,-0.0324,-0.0309,-0.0292,-0.0289,-0.0296,-0.0299,-0.0323,-0.0347,-0.0393,-0.0409,-0.0488,-0.0474,-0.0523,-0.0557,-0.056,-0.0545,-0.056,-0.0522,-0.0519,-0.0593,-0.0593,-0.0592,-0.0592,0,-0.0321,-0.0323,-0.0332,-0.0327,-0.0316,-0.0301,-0.0289,-0.0281,-0.0273,-0.0287,-0.0279,-0.0335,-0.0352,-0.0419,-0.0485,-0.0492,-0.0561,-0.0583,-0.0603,-0.0601,-0.057,-0.0563,-0.0643,-0.0643,-0.0642,-0.0642,-0.0642,0,-0.0325,-0.0318,-0.0327,-0.0326,-0.0304,-0.0295,-0.0268,-0.0259,-0.0248,-0.0234,-0.0272,-0.0267,-0.0355,-0.0402,-0.0474,-0.0537,-0.0556,-0.0595,-0.0609,-0.0555,-0.0547,-0.0635,-0.0634,-0.0644,-0.0643,-0.0643,-0.0643,0,-0.0314,-0.033,-0.032,-0.0313,-0.0302,-0.0281,-0.0241,-0.0224,-0.0213,-0.0192,-0.0194,-0.0222,-0.0272,-0.0356,-0.0456,-0.051,-0.0582,-0.0607,-0.0526,-0.0529,-0.0608,-0.0604,-0.0631,-0.063,-0.063,-0.0629,-0.0629,0,-0.0317,-0.0318,-0.0305,-0.0287,-0.0276,-0.0245,-0.022,-0.0205,-0.0183,-0.0157,-0.0146,-0.0178,-0.0168,-0.0288,-0.0385,-0.0485,-0.056,-0.0531,-0.0536,-0.0595,-0.0607,-0.0605,-0.0602,-0.0483,-0.0481,-0.048,-0.0479,0,-0.0303,-0.0295,-0.0291,-0.0259,-0.0231,-0.0208,-0.0169,-0.014,-0.0117,-0.0069,-0.0021,0.0,-0.0088,-0.0153,-0.0295,-0.0363,-0.0504,-0.0506,-0.0598,-0.0488,-0.0457,-0.0468,-0.047,-0.0467,-0.0468,-0.0469,-0.047,-0.047,-0.0278,-0.0272,-0.0261,-0.0227,-0.0193,-0.0157,-0.0108,-0.0054,0.0017,0.0141,0.0117,0.0185,0.0034,-0.0077,-0.0219,-0.0374,-0.039,-0.0464,-0.0468,-0.0473,-0.0442,-0.0411,-0.0406,-0.0407,-0.0407,-0.0408,-0.0409,0,-0.0246,-0.025,-0.0225,-0.019,-0.0143,-0.0129,-0.0064,0.0022,0.0151,0.0261,0.0371,0.0276,0.0205,0.0006,-0.0185,-0.0313,-0.0316,-0.0378,-0.0374,-0.0383,-0.0392,-0.0357,-0.0299,-0.0299,-0.0299,-0.03,0,0,-0.0242,-0.0224,-0.0228,-0.0158,-0.011,-0.0028,0.0027,0.0183,0.0291,0.0447,0.0501,0.0571,0.028,0.0142,-0.0046,-0.0176,-0.0237,-0.0181,-0.0247,-0.0223,-0.023,-0.0411,-0.0364,0,0,0,0,0]}],[{"header":{"parameterUnit":"m.s-1","parameterCategory":2,"la1":30.2991,"la2":30.254,"lo1":-89.0895,"lo2":-89.0444,"dy":0.0017,"dx":0.0017,"nx":28,"ny":28,"refTime":"2024-06-13T21:00:00:Z","depth":"4","parameterNumber":2,"parameterNumberName":"U-component_of_CURRENTS"},"data":[0,0,0,0,0,0,0,0,0,0,0,0,0,0,0,0,0,0,0,0,0,0,0,0,0,0,0,0,0,0,0,0,0,0,0,0,0,0,0,0,0,0,0,0,0,0,0,0,0,0,0,0,0,0,0,0,0,0,-0.0205,-0.0206,0,-0.0256,-0.0257,-0.0257,-0.0307,-0.0307,-0.0308,-0.0309,-0.0362,-0.0363,-0.0364,0,0,0,0,0,0,0,0,0,0,0,0,0,-0.017,-0.017,-0.0205,-0.0206,-0.0207,-0.0256,-0.0257,-0.0257,-0.0306,-0.0307,-0.0308,-0.0309,-0.0362,-0.0363,-0.0364,0,0,0,0,0,0,0,0,0,0,0,0,0,-0.0197,-0.017,-0.0205,-0.0239,-0.0243,-0.0256,-0.0257,-0.0257,-0.0306,-0.0307,-0.0309,-0.031,-0.0362,-0.0363,-0.0364,-0.0343,0,0,-0.0367,-0.0367,0,0,0,0,0,0,0,0,-0.0195,-0.0198,-0.0233,-0.0237,-0.0241,-0.0279,-0.0264,-0.0287,-0.0306,-0.0279,-0.0309,-0.0311,-0.0335,-0.0339,-0.0342,-0.0346,-0.0348,-0.0367,-0.0367,-0.0368,-0.0368,0,0,0,0,0,0,0,-0.0193,-0.0196,-0.0223,-0.0234,-0.0239,-0.0259,-0.0264,-0.0269,-0.0297,-0.0282,-0.0286,-0.0296,-0.0337,-0.034,-0.0343,-0.0349,-0.0367,-0.0367,-0.0368,-0.0368,-0.0414,-0.0415,0,0,0,0,0,0,-0.019,-0.0194,-0.0221,-0.0224,-0.0224,-0.0259,-0.0264,-0.0263,-0.0297,-0.0305,-0.0294,-0.0298,-0.0338,-0.0342,-0.0345,-0.0384,-0.0368,-0.0368,-0.0369,-0.0413,-0.0414,-0.0415,0,0,0,0,0,0,-0.0188,-0.0191,-0.0219,-0.0213,-0.0219,-0.0258,-0.0257,-0.0264,-0.0294,-0.0308,-0.0315,-0.0321,-0.0339,-0.0344,-0.0374,-0.0385,-0.0369,-0.037,-0.0412,-0.0413,-0.0414,-0.0423,0,0,0,0,0,0,-0.0187,-0.019,-0.0199,-0.0212,-0.0219,-0.0234,-0.0256,-0.0264,-0.0297,-0.0303,-0.0332,-0.0337,-0.0341,-0.0372,-0.0375,-0.0386,-0.037,-0.0412,-0.0413,-0.0414,-0.0422,-0.0424,-0.0426,0,0,0,0,0,-0.0185,-0.019,-0.0199,-0.0203,-0.0226,-0.0234,-0.0239,-0.027,-0.0297,-0.0304,-0.0335,-0.0337,-0.0382,-0.0373,-0.0376,-0.0388,-0.0411,-0.0413,-0.0414,-0.0421,-0.0424,-0.0426,0,0,0,0,0,0,-0.0185,-0.0195,-0.0206,-0.0216,-0.0228,-0.0244,-0.0265,-0.0281,-0.031,-0.033,-0.0344,-0.035,-0.038,-0.0383,-0.0374,-0.0405,-0.0397,-0.0399,-0.0402,-0.0404,-0.0406,-0.039,-0.0371,0,0,0,0,0,-0.0186,-0.0193,-0.0203,-0.0215,-0.0224,-0.0248,-0.0263,-0.028,-0.0303,-0.0319,-0.0341,-0.0366,-0.0382,-0.0395,-0.0407,-0.0422,-0.0407,-0.0432,-0.0434,-0.0436,-0.0426,-0.0431,-0.0432,-0.042,-0.042,-0.042,0,0,-0.0191,-0.02,-0.0206,-0.0216,-0.0235,-0.0243,-0.0261,-0.0287,-0.03,-0.0318,-0.0358,-0.0376,-0.0389,-0.0409,-0.0422,-0.0417,-0.0428,-0.0438,-0.0439,-0.0427,-0.0432,-0.0433,-0.0434,-0.0421,-0.042,-0.042,0,0,-0.02,-0.0213,-0.022,-0.0228,-0.0255,-0.0261,-0.0272,-0.0296,-0.0318,-0.0344,-0.0367,-0.0395,-0.0418,-0.0429,-0.0437,-0.0457,-0.044,-0.0466,-0.0462,-0.0467,-0.0468,-0.0468,-0.0429,-0.0426,-0.0465,-0.0465,-0.0465,0,-0.021,-0.0213,-0.0225,-0.0234,-0.0248,-0.027,-0.0279,-0.0295,-0.0328,-0.0341,-0.036,-0.0404,-0.0424,-0.044,-0.0451,-0.0462,-0.0445,-0.045,-0.0468,-0.0469,-0.0469,-0.0429,-0.0425,-0.0466,-0.0466,-0.0466,-0.0466,0,-0.0216,-0.0226,-0.0236,-0.0249,-0.0261,-0.0275,-0.0291,-0.0311,-0.0341,-0.0353,-0.0386,-0.0413,-0.0429,-0.0449,-0.0457,-0.0471,-0.045,-0.0471,-0.0458,-0.0471,-0.0427,-0.0424,-0.0467,-0.0467,-0.0466,-0.0466,0,0,-0.022,-0.0234,-0.0239,-0.0247,-0.0271,-0.0277,-0.0299,-0.0312,-0.0325,-0.036,-0.0371,-0.0414,-0.0423,-0.0432,-0.045,-0.0464,-0.0454,-0.0467,-0.0467,-0.042,-0.043,-0.0356,-0.0344,-0.0481,-0.0481,-0.0481,-0.039,0,-0.0226,-0.0232,-0.0242,-0.0257,-0.0264,-0.0284,-0.0297,-0.0316,-0.0333,-0.0345,-0.0375,-0.0387,-0.0417,-0.0421,-0.0442,-0.0453,-0.0448,-0.0474,-0.0431,-0.0429,-0.0357,-0.0339,-0.0481,-0.0387,-0.0386,-0.0386,-0.0385,0,-0.0231,-0.0232,-0.0241,-0.0255,-0.0262,-0.0272,-0.0291,-0.0303,-0.0317,-0.0328,-0.0342,-0.0353,-0.0366,-0.0396,-0.0403,-0.0417,-0.0416,-0.0427,-0.0424,-0.0348,-0.0349,-0.0379,-0.0378,-0.0378,-0.0379,-0.0379,-0.038,0,-0.0225,-0.0236,-0.024,-0.0247,-0.0262,-0.0275,-0.0284,-0.0301,-0.0303,-0.0304,-0.0292,-0.0316,-0.0307,-0.0334,-0.0338,-0.0371,-0.0334,-0.0382,-0.0306,-0.0299,-0.039,-0.0391,-0.0378,-0.0378,-0.0378,-0.0378,-0.0379,0,-0.0227,-0.0234,-0.0237,-0.0241,-0.0246,-0.0265,-0.0271,-0.0278,-0.0279,-0.026,-0.0275,-0.0255,-0.0294,-0.0276,-0.0306,-0.0267,-0.0299,-0.0283,-0.0273,-0.0392,-0.0395,-0.0385,-0.0387,-0.0375,-0.0376,-0.0376,-0.0377,0,-0.0231,-0.0232,-0.0235,-0.0243,-0.0244,-0.025,-0.0254,-0.0247,-0.0245,-0.0214,-0.0203,-0.0192,-0.0161,-0.0173,-0.0187,-0.0193,-0.0189,-0.0167,-0.024,-0.0239,-0.0158,-0.0162,-0.0078,-0.0075,-0.0072,-0.007,-0.0068,0,-0.0233,-0.0235,-0.0231,-0.0225,-0.0231,-0.0235,-0.0229,-0.0231,-0.0217,-0.0173,-0.0151,-0.0099,-0.0089,-0.0025,-0.0068,-0.0062,-0.0082,-0.0053,-0.0159,-0.0129,-0.0128,-0.0136,-0.0144,-0.0063,-0.0063,-0.0062,-0.0061,0,-0.024,-0.0243,-0.0241,-0.0216,-0.0208,-0.0193,-0.0185,-0.0164,-0.0146,-0.0139,-0.0067,-0.0031,0.0023,0.0017,0.0056,0.003,-0.0067,-0.0025,-0.0033,-0.0133,-0.011,-0.0114,-0.0124,-0.0051,-0.0053,-0.0054,-0.0054,0,-0.0247,-0.0245,-0.0233,-0.021,-0.0189,-0.015,-0.0149,-0.0112,-0.0091,-0.0043,-0.0017,0.0024,0.0038,0.0069,0.0078,0.0098,0.0064,0.0042,0.003,0.0019,0.0004,0.0043,0.0179,0,0,0,0,0,-0.0246,-0.024,-0.0221,-0.0185,-0.0157,-0.0139,-0.0115,-0.0112,-0.0086,-0.0018,-0.0014,0.0038,0.0092,0.0092,0.0126,0.0093,0.0048,0.0131,0.0012,0.0003,-0.0009,-0.0039,0,0,0,0,0,0,-0.0239,-0.0242,-0.0222,-0.0163,-0.0129,-0.0091,-0.0071,-0.0053,-0.0024,0.0002,0.0022,0.0049,0.008,0.0079,0.0128,0.0132,0.0062,0.0147,0.0148,0.0009,-0.0001,-0.001,-0.0045,0,0,0,0,0]},{"header":{"parameterUnit":"m.s-1","parameterCategory":2,"la1":30.2991,"la2":30.254,"lo1":-89.0895,"lo2":-89.0444,"dy":0.0017,"dx":0.0017,"nx":28,"ny":28,"refTime":"2024-06-13T21:00:00:Z","depth":"4","parameterNumber":3,"parameterNumberName":"V-component_of_CURRENTS"},"data":[0,0,0,0,0,0,0,0,0,0,0,0,0,0,0,0,0,0,0,0,0,0,0,0,0,0,0,0,0,0,0,0,0,0,0,0,0,0,0,0,0,0,0,0,0,0,0,0,0,0,0,0,0,0,0,0,0,0,0.017,0.017,0,0.0165,0.0164,0.0164,0.0129,0.0128,0.0128,0.0127,0.0034,0.0032,0.003,0,0,0,0,0,0,0,0,0,0,0,0,0,0.0156,0.0156,0.017,0.017,0.017,0.0165,0.0164,0.0164,0.0129,0.0128,0.0128,0.0127,0.0034,0.0032,0.003,0,0,0,0,0,0,0,0,0,0,0,0,0,0.0156,0.0156,0.017,0.0153,0.0152,0.0165,0.0164,0.0164,0.0129,0.0128,0.0127,0.0126,0.0035,0.0032,0.003,0.0034,0,0,0.0021,0.002,0,0,0,0,0,0,0,0,0.0156,0.0156,0.0155,0.0154,0.0153,0.0148,0.0125,0.0117,0.013,0.0136,0.0127,0.0126,0.0065,0.006,0.0061,0.003,0.0026,0.0021,0.0019,0.0018,0.0017,0,0,0,0,0,0,0,0.0156,0.0156,0.0166,0.0156,0.0154,0.0148,0.0147,0.0124,0.0104,0.0136,0.0133,0.0136,0.0064,0.0063,0.0058,0.0024,0.0021,0.0019,0.0017,0.0016,-0.006,-0.006,0,0,0,0,0,0,0.0161,0.0157,0.0166,0.0166,0.0153,0.0149,0.0148,0.0149,0.0106,0.01,0.0137,0.0134,0.0069,0.0061,0.0054,0.0003,0.0018,0.0016,0.0014,-0.0059,-0.006,-0.006,0,0,0,0,0,0,0.016,0.0162,0.0167,0.0162,0.0163,0.0151,0.0153,0.015,0.0132,0.0108,0.0099,0.012,0.0068,0.0058,0.002,0.0001,0.0014,0.0012,-0.0059,-0.0059,-0.006,-0.0065,0,0,0,0,0,0,0.016,0.0162,0.016,0.0163,0.0163,0.0159,0.0154,0.015,0.0136,0.0133,0.0091,0.0083,0.0066,0.0024,0.0017,-0.0002,0.001,-0.0058,-0.0059,-0.006,-0.0064,-0.0065,-0.0067,0,0,0,0,0,0.016,0.0157,0.016,0.0161,0.0163,0.0159,0.0158,0.0145,0.0137,0.0125,0.01,0.0083,0.0015,0.0022,0.0014,-0.0007,-0.0058,-0.0059,-0.006,-0.0064,-0.0065,-0.0066,0,0,0,0,0,0,0.0147,0.0154,0.0157,0.0156,0.0154,0.0153,0.0146,0.0139,0.0113,0.0103,0.0078,0.0068,0.0028,0.0014,0.0023,-0.003,-0.0024,-0.0027,-0.0025,-0.0026,-0.0027,-0.0027,0.0008,0,0,0,0,0,0.0148,0.0149,0.0153,0.0152,0.0151,0.0148,0.0144,0.0134,0.0117,0.0105,0.0075,0.0047,0.0023,0.0001,-0.0023,-0.0052,-0.0051,-0.007,-0.0071,-0.0072,-0.0077,-0.0079,-0.0081,-0.0063,-0.0063,-0.0063,0,0,0.0144,0.0148,0.0149,0.015,0.0149,0.0138,0.0141,0.0129,0.0109,0.0098,0.0053,0.0039,0.0015,-0.0018,-0.0037,-0.0036,-0.0076,-0.0073,-0.0074,-0.0078,-0.008,-0.0082,-0.0083,-0.0063,-0.0063,-0.0063,0,0,0.0135,0.014,0.0136,0.0132,0.0128,0.0124,0.0117,0.0105,0.0087,0.0055,0.0042,0.0018,-0.0025,-0.0042,-0.0055,-0.0077,-0.008,-0.0086,-0.0097,-0.0099,-0.01,-0.0102,-0.0097,-0.0098,-0.0088,-0.0088,-0.0088,0,0.0127,0.0128,0.0132,0.0124,0.0117,0.0114,0.0099,0.0084,0.0056,0.0039,0.0033,-0.0016,-0.0038,-0.0068,-0.0074,-0.0082,-0.0077,-0.009,-0.01,-0.0101,-0.0103,-0.0098,-0.0099,-0.0089,-0.0089,-0.0089,-0.0089,0,0.0114,0.0113,0.0108,0.0098,0.0085,0.0075,0.0057,0.0033,0.0013,0.0001,-0.0037,-0.0053,-0.0079,-0.0089,-0.009,-0.011,-0.0101,-0.0098,-0.0095,-0.0105,-0.0099,-0.01,-0.0089,-0.0089,-0.0089,-0.0089,0,0,0.0098,0.0101,0.0097,0.0093,0.0071,0.0061,0.0022,-0.0005,-0.0029,-0.0056,-0.0082,-0.0113,-0.0109,-0.0122,-0.0123,-0.0127,-0.0127,-0.0115,-0.0115,-0.0108,-0.0123,-0.0142,-0.0144,-0.0122,-0.0122,-0.0122,-0.0114,0,0.0086,0.008,0.0072,0.005,0.0044,0.0022,-0.0013,-0.0044,-0.0067,-0.0095,-0.0107,-0.0127,-0.0125,-0.0127,-0.0133,-0.0126,-0.013,-0.0129,-0.0118,-0.0118,-0.0131,-0.0147,-0.0123,-0.0115,-0.0115,-0.0115,-0.0115,0,0.0068,0.0071,0.0057,0.0036,0.0028,0.0004,-0.0045,-0.0074,-0.0113,-0.0128,-0.0145,-0.0147,-0.0156,-0.0146,-0.0148,-0.0144,-0.0137,-0.0131,-0.0131,-0.0149,-0.0138,-0.0105,-0.0116,-0.0116,-0.0116,-0.0116,-0.0116,0,0.0062,0.0052,0.0046,0.0039,0.0014,-0.0012,-0.004,-0.0087,-0.0107,-0.0137,-0.0139,-0.016,-0.0152,-0.0155,-0.0145,-0.0141,-0.0142,-0.0135,-0.0149,-0.0149,-0.0131,-0.013,-0.0141,-0.0141,-0.0141,-0.0141,-0.0141,0,0.0049,0.0041,0.0047,0.0042,0.0016,-0.0012,-0.0052,-0.0082,-0.0112,-0.0128,-0.0144,-0.0151,-0.015,-0.015,-0.015,-0.0154,-0.0146,-0.0157,-0.0154,-0.0132,-0.0132,-0.0131,-0.013,-0.0141,-0.0141,-0.0141,-0.0141,0,0.0034,0.0043,0.0039,0.0025,0.0016,-0.0007,-0.0047,-0.0073,-0.0096,-0.0111,-0.0111,-0.013,-0.0139,-0.0143,-0.0145,-0.0151,-0.0159,-0.0162,-0.0138,-0.0132,-0.0162,-0.0161,-0.0177,-0.0178,-0.0179,-0.0179,-0.018,0,0.0024,0.0029,0.0032,0.0029,0.0021,-0.0008,-0.0035,-0.0066,-0.0085,-0.0103,-0.0107,-0.0114,-0.0129,-0.0145,-0.0161,-0.0173,-0.0175,-0.0172,-0.0174,-0.0173,-0.0168,-0.0166,-0.0165,-0.0181,-0.0181,-0.0181,-0.0181,0,0.0007,0.0016,0.0017,0.002,0.0005,-0.0015,-0.0048,-0.0054,-0.0085,-0.0082,-0.0097,-0.0113,-0.0129,-0.0155,-0.0163,-0.0174,-0.0173,-0.0178,-0.0177,-0.0179,-0.0177,-0.0171,-0.0169,-0.0183,-0.0183,-0.0183,-0.0183,0,-0.0009,-0.0009,0.0002,0.0002,-0.0006,-0.0028,-0.0046,-0.0067,-0.0083,-0.0087,-0.0095,-0.0115,-0.0121,-0.0156,-0.0171,-0.0181,-0.0184,-0.0178,-0.0176,-0.0174,-0.0183,-0.018,-0.0191,0,0,0,0,0,-0.0028,-0.0027,-0.0022,-0.0027,-0.0029,-0.0033,-0.0057,-0.0073,-0.0081,-0.0084,-0.0087,-0.0105,-0.0134,-0.016,-0.0173,-0.0193,-0.0194,-0.021,-0.0188,-0.0195,-0.0192,-0.0206,0,0,0,0,0,0,-0.0045,-0.0043,-0.0028,-0.0042,-0.0043,-0.0063,-0.0071,-0.0079,-0.009,-0.0086,-0.0107,-0.0099,-0.0137,-0.0114,-0.0166,-0.0174,-0.0161,-0.0221,-0.0221,-0.0196,-0.0194,-0.0192,-0.0205,0,0,0,0,0]}]]